Year,Month,Day,Hour,Minute,Value (Times are PST for temperature in C)
2007,08,01,00,00,15.80
2007,08,01,00,01,15.80
2007,08,01,00,02,15.80
2007,08,01,00,03,15.80
2007,08,01,00,04,15.80
2007,08,01,00,05,15.90
2007,08,01,00,06,15.90
2007,08,01,00,07,15.90
2007,08,01,00,08,16.00
2007,08,01,00,09,16.10
2007,08,01,00,10,16.10
2007,08,01,00,11,16.10
2007,08,01,00,12,16.10
2007,08,01,00,13,16.10
2007,08,01,00,14,16.10
2007,08,01,00,15,16.10
2007,08,01,00,16,16.00
2007,08,01,00,17,16.00
2007,08,01,00,18,15.90
2007,08,01,00,19,15.90
2007,08,01,00,20,15.80
2007,08,01,00,21,15.80
2007,08,01,00,22,15.70
2007,08,01,00,23,15.60
2007,08,01,00,24,15.60
2007,08,01,00,25,15.50
2007,08,01,00,26,15.40
2007,08,01,00,27,15.40
2007,08,01,00,28,15.30
2007,08,01,00,29,15.30
2007,08,01,00,30,15.20
2007,08,01,00,31,15.20
2007,08,01,00,32,15.20
2007,08,01,00,33,15.10
2007,08,01,00,34,15.10
2007,08,01,00,35,15.10
2007,08,01,00,36,15.00
2007,08,01,00,37,15.00
2007,08,01,00,38,15.00
2007,08,01,00,39,15.00
2007,08,01,00,40,15.00
2007,08,01,00,41,15.00
2007,08,01,00,42,15.00
2007,08,01,00,43,15.00
2007,08,01,00,44,15.00
2007,08,01,00,45,15.00
2007,08,01,00,46,15.00
2007,08,01,00,47,15.00
2007,08,01,00,48,15.00
2007,08,01,00,49,15.00
2007,08,01,00,50,15.00
2007,08,01,00,51,15.00
2007,08,01,00,52,15.00
2007,08,01,00,53,15.00
2007,08,01,00,54,15.00
2007,08,01,00,55,15.00
2007,08,01,00,56,15.00
2007,08,01,00,57,15.00
2007,08,01,00,58,15.00
2007,08,01,00,59,15.00
2007,08,01,01,00,15.10
2007,08,01,01,01,15.00
2007,08,01,01,02,15.00
2007,08,01,01,03,15.00
2007,08,01,01,04,15.00
2007,08,01,01,05,15.00
2007,08,01,01,06,15.10
2007,08,01,01,07,15.20
2007,08,01,01,08,15.30
2007,08,01,01,09,15.40
2007,08,01,01,10,15.50
2007,08,01,01,11,15.60
2007,08,01,01,12,15.70
2007,08,01,01,13,15.70
2007,08,01,01,14,15.80
2007,08,01,01,15,15.90
2007,08,01,01,16,15.90
2007,08,01,01,17,16.00
2007,08,01,01,18,16.10
2007,08,01,01,19,16.10
2007,08,01,01,20,16.10
2007,08,01,01,21,16.20
2007,08,01,01,22,16.20
2007,08,01,01,23,16.20
2007,08,01,01,24,16.20
2007,08,01,01,25,16.20
2007,08,01,01,26,16.20
2007,08,01,01,27,16.20
2007,08,01,01,28,16.30
2007,08,01,01,29,16.30
2007,08,01,01,30,16.30
2007,08,01,01,31,16.30
2007,08,01,01,32,16.30
2007,08,01,01,33,16.30
2007,08,01,01,34,16.30
2007,08,01,01,35,16.40
2007,08,01,01,36,16.40
2007,08,01,01,37,16.40
2007,08,01,01,38,16.40
2007,08,01,01,39,16.50
2007,08,01,01,40,16.50
2007,08,01,01,41,16.60
2007,08,01,01,42,16.60
2007,08,01,01,43,16.60
2007,08,01,01,44,16.60
2007,08,01,01,45,16.60
2007,08,01,01,46,16.60
2007,08,01,01,47,16.60
2007,08,01,01,48,16.60
2007,08,01,01,49,16.60
2007,08,01,01,50,16.60
2007,08,01,01,51,16.50
2007,08,01,01,52,16.50
2007,08,01,01,53,16.50
2007,08,01,01,54,16.40
2007,08,01,01,55,16.40
2007,08,01,01,56,16.30
2007,08,01,01,57,16.30
2007,08,01,01,58,16.30
2007,08,01,01,59,16.30
2007,08,01,02,00,16.20
2007,08,01,02,01,16.20
2007,08,01,02,02,16.10
2007,08,01,02,03,16.10
2007,08,01,02,04,16.10
2007,08,01,02,05,16.10
2007,08,01,02,06,16.10
2007,08,01,02,07,16.10
2007,08,01,02,08,16.10
2007,08,01,02,09,16.10
2007,08,01,02,10,16.10
2007,08,01,02,11,16.10
2007,08,01,02,12,16.00
2007,08,01,02,13,16.00
2007,08,01,02,14,15.90
2007,08,01,02,15,15.90
2007,08,01,02,16,15.90
2007,08,01,02,17,15.90
2007,08,01,02,18,15.90
2007,08,01,02,19,16.00
2007,08,01,02,20,16.00
2007,08,01,02,21,16.10
2007,08,01,02,22,16.10
2007,08,01,02,23,16.10
2007,08,01,02,24,16.20
2007,08,01,02,25,16.20
2007,08,01,02,26,16.20
2007,08,01,02,27,16.30
2007,08,01,02,28,16.30
2007,08,01,02,29,16.20
2007,08,01,02,30,16.30
2007,08,01,02,31,16.30
2007,08,01,02,32,16.30
2007,08,01,02,33,16.30
2007,08,01,02,34,16.20
2007,08,01,02,35,16.20
2007,08,01,02,36,16.20
2007,08,01,02,37,16.20
2007,08,01,02,38,16.20
2007,08,01,02,39,16.20
2007,08,01,02,40,16.20
2007,08,01,02,41,16.20
2007,08,01,02,42,16.30
2007,08,01,02,43,16.30
2007,08,01,02,44,16.30
2007,08,01,02,45,16.40
2007,08,01,02,46,16.40
2007,08,01,02,47,16.50
2007,08,01,02,48,16.60
2007,08,01,02,49,16.60
2007,08,01,02,50,16.70
2007,08,01,02,51,16.70
2007,08,01,02,52,16.70
2007,08,01,02,53,16.80
2007,08,01,02,54,16.80
2007,08,01,02,55,16.80
2007,08,01,02,56,16.90
2007,08,01,02,57,16.90
2007,08,01,02,58,17.00
2007,08,01,02,59,17.00
2007,08,01,03,00,17.10
2007,08,01,03,01,17.10
2007,08,01,03,02,17.20
2007,08,01,03,03,17.20
2007,08,01,03,04,17.20
2007,08,01,03,05,17.20
2007,08,01,03,06,17.20
2007,08,01,03,07,17.20
2007,08,01,03,08,17.20
2007,08,01,03,09,17.30
2007,08,01,03,10,17.30
2007,08,01,03,11,17.30
2007,08,01,03,12,17.30
2007,08,01,03,13,17.30
2007,08,01,03,14,17.20
2007,08,01,03,15,17.20
2007,08,01,03,16,17.20
2007,08,01,03,17,17.20
2007,08,01,03,18,17.20
2007,08,01,03,19,17.20
2007,08,01,03,20,17.20
2007,08,01,03,21,17.10
2007,08,01,03,22,17.10
2007,08,01,03,23,17.10
2007,08,01,03,24,17.10
2007,08,01,03,25,17.00
2007,08,01,03,26,17.00
2007,08,01,03,27,17.00
2007,08,01,03,28,17.00
2007,08,01,03,29,17.00
2007,08,01,03,30,17.00
2007,08,01,03,31,17.00
2007,08,01,03,32,17.00
2007,08,01,03,33,17.10
2007,08,01,03,34,17.10
2007,08,01,03,35,17.10
2007,08,01,03,36,17.00
2007,08,01,03,37,17.00
2007,08,01,03,38,16.90
2007,08,01,03,39,16.90
2007,08,01,03,40,16.90
2007,08,01,03,41,16.90
2007,08,01,03,42,16.90
2007,08,01,03,43,16.90
2007,08,01,03,44,16.90
2007,08,01,03,45,16.90
2007,08,01,03,46,16.90
2007,08,01,03,47,16.80
2007,08,01,03,48,16.80
2007,08,01,03,49,16.80
2007,08,01,03,50,16.80
2007,08,01,03,51,16.80
2007,08,01,03,52,16.80
2007,08,01,03,53,16.80
2007,08,01,03,54,16.80
2007,08,01,03,55,16.80
2007,08,01,03,56,16.90
2007,08,01,03,57,16.90
2007,08,01,03,58,16.90
2007,08,01,03,59,16.90
2007,08,01,04,00,16.90
2007,08,01,04,01,16.90
2007,08,01,04,02,16.90
2007,08,01,04,03,16.90
2007,08,01,04,04,16.90
2007,08,01,04,05,16.90
2007,08,01,04,06,16.90
2007,08,01,04,07,16.90
2007,08,01,04,08,16.90
2007,08,01,04,09,16.90
2007,08,01,04,10,16.90
2007,08,01,04,11,16.90
2007,08,01,04,12,16.90
2007,08,01,04,13,16.90
2007,08,01,04,14,16.90
2007,08,01,04,15,16.90
2007,08,01,04,16,16.90
2007,08,01,04,17,16.90
2007,08,01,04,18,16.90
2007,08,01,04,19,16.90
2007,08,01,04,20,16.90
2007,08,01,04,21,16.90
2007,08,01,04,22,16.90
2007,08,01,04,23,16.90
2007,08,01,04,24,17.00
2007,08,01,04,25,17.00
2007,08,01,04,26,17.00
2007,08,01,04,27,17.00
2007,08,01,04,28,16.90
2007,08,01,04,29,16.90
2007,08,01,04,30,16.90
2007,08,01,04,31,16.90
2007,08,01,04,32,16.90
2007,08,01,04,33,16.90
2007,08,01,04,34,16.90
2007,08,01,04,35,16.90
2007,08,01,04,36,16.90
2007,08,01,04,37,16.80
2007,08,01,04,38,16.80
2007,08,01,04,39,16.80
2007,08,01,04,40,16.80
2007,08,01,04,41,16.80
2007,08,01,04,42,16.80
2007,08,01,04,43,16.80
2007,08,01,04,44,16.80
2007,08,01,04,45,16.80
2007,08,01,04,46,16.70
2007,08,01,04,47,16.70
2007,08,01,04,48,16.70
2007,08,01,04,49,16.70
2007,08,01,04,50,16.70
2007,08,01,04,51,16.70
2007,08,01,04,52,16.70
2007,08,01,04,53,16.70
2007,08,01,04,54,16.70
2007,08,01,04,55,16.70
2007,08,01,04,56,16.60
2007,08,01,04,57,16.60
2007,08,01,04,58,16.60
2007,08,01,04,59,16.60
2007,08,01,05,00,16.60
2007,08,01,05,01,16.60
2007,08,01,05,02,16.50
2007,08,01,05,03,16.50
2007,08,01,05,04,16.50
2007,08,01,05,05,16.50
2007,08,01,05,06,16.50
2007,08,01,05,07,16.50
2007,08,01,05,08,16.50
2007,08,01,05,09,16.50
2007,08,01,05,10,16.50
2007,08,01,05,11,16.50
2007,08,01,05,12,16.50
2007,08,01,05,13,16.50
2007,08,01,05,14,16.50
2007,08,01,05,15,16.50
2007,08,01,05,16,16.50
2007,08,01,05,17,16.60
2007,08,01,05,18,16.60
2007,08,01,05,19,16.60
2007,08,01,05,20,16.50
2007,08,01,05,21,16.50
2007,08,01,05,22,16.50
2007,08,01,05,23,16.50
2007,08,01,05,24,16.50
2007,08,01,05,25,16.50
2007,08,01,05,26,16.50
2007,08,01,05,27,16.50
2007,08,01,05,28,16.50
2007,08,01,05,29,16.50
2007,08,01,05,30,16.50
2007,08,01,05,31,16.50
2007,08,01,05,32,16.40
2007,08,01,05,33,16.40
2007,08,01,05,34,16.40
2007,08,01,05,35,16.40
2007,08,01,05,36,16.40
2007,08,01,05,37,16.40
2007,08,01,05,38,16.40
2007,08,01,05,39,16.40
2007,08,01,05,40,16.40
2007,08,01,05,41,16.40
2007,08,01,05,42,16.40
2007,08,01,05,43,16.40
2007,08,01,05,44,16.40
2007,08,01,05,45,16.40
2007,08,01,05,46,16.40
2007,08,01,05,47,16.40
2007,08,01,05,48,16.40
2007,08,01,05,49,16.40
2007,08,01,05,50,16.40
2007,08,01,05,51,16.40
2007,08,01,05,52,16.40
2007,08,01,05,53,16.40
2007,08,01,05,54,16.40
2007,08,01,05,55,16.40
2007,08,01,05,56,16.30
2007,08,01,05,57,16.30
2007,08,01,05,58,16.30
2007,08,01,05,59,16.30
2007,08,01,06,00,16.30
2007,08,01,06,01,16.30
2007,08,01,06,02,16.30
2007,08,01,06,03,16.30
2007,08,01,06,04,16.30
2007,08,01,06,05,16.30
2007,08,01,06,06,16.30
2007,08,01,06,07,16.30
2007,08,01,06,08,16.30
2007,08,01,06,09,16.30
2007,08,01,06,10,16.30
2007,08,01,06,11,16.30
2007,08,01,06,12,16.30
2007,08,01,06,13,16.30
2007,08,01,06,14,16.30
2007,08,01,06,15,16.30
2007,08,01,06,16,16.30
2007,08,01,06,17,16.40
2007,08,01,06,18,16.40
2007,08,01,06,19,16.40
2007,08,01,06,20,16.40
2007,08,01,06,21,16.40
2007,08,01,06,22,16.40
2007,08,01,06,23,16.50
2007,08,01,06,24,16.50
2007,08,01,06,25,16.60
2007,08,01,06,26,16.60
2007,08,01,06,27,16.60
2007,08,01,06,28,16.60
2007,08,01,06,29,16.60
2007,08,01,06,30,16.60
2007,08,01,06,31,16.60
2007,08,01,06,32,16.60
2007,08,01,06,33,16.60
2007,08,01,06,34,16.60
2007,08,01,06,35,16.60
2007,08,01,06,36,16.60
2007,08,01,06,37,16.70
2007,08,01,06,38,16.70
2007,08,01,06,39,16.70
2007,08,01,06,40,16.70
2007,08,01,06,41,16.70
2007,08,01,06,42,16.70
2007,08,01,06,43,16.70
2007,08,01,06,44,16.80
2007,08,01,06,45,16.80
2007,08,01,06,46,16.80
2007,08,01,06,47,16.90
2007,08,01,06,48,16.90
2007,08,01,06,49,17.00
2007,08,01,06,50,17.00
2007,08,01,06,51,17.00
2007,08,01,06,52,17.10
2007,08,01,06,53,17.10
2007,08,01,06,54,17.10
2007,08,01,06,55,17.20
2007,08,01,06,56,17.20
2007,08,01,06,57,17.20
2007,08,01,06,58,17.20
2007,08,01,06,59,17.20
2007,08,01,07,00,17.20
2007,08,01,07,01,17.20
2007,08,01,07,02,17.20
2007,08,01,07,03,17.20
2007,08,01,07,04,17.20
2007,08,01,07,05,17.20
2007,08,01,07,06,17.30
2007,08,01,07,07,17.30
2007,08,01,07,08,17.30
2007,08,01,07,09,17.30
2007,08,01,07,10,17.30
2007,08,01,07,11,17.30
2007,08,01,07,12,17.30
2007,08,01,07,13,17.30
2007,08,01,07,14,17.40
2007,08,01,07,15,17.40
2007,08,01,07,16,17.40
2007,08,01,07,17,17.50
2007,08,01,07,18,17.50
2007,08,01,07,19,17.60
2007,08,01,07,20,17.70
2007,08,01,07,21,17.70
2007,08,01,07,22,17.80
2007,08,01,07,23,17.80
2007,08,01,07,24,17.90
2007,08,01,07,25,17.90
2007,08,01,07,26,18.00
2007,08,01,07,27,18.00
2007,08,01,07,28,18.10
2007,08,01,07,29,18.20
2007,08,01,07,30,18.20
2007,08,01,07,31,18.20
2007,08,01,07,32,18.30
2007,08,01,07,33,18.30
2007,08,01,07,34,18.30
2007,08,01,07,35,18.30
2007,08,01,07,36,18.40
2007,08,01,07,37,18.40
2007,08,01,07,38,18.40
2007,08,01,07,39,18.50
2007,08,01,07,40,18.50
2007,08,01,07,41,18.50
2007,08,01,07,42,18.50
2007,08,01,07,43,18.60
2007,08,01,07,44,18.60
2007,08,01,07,45,18.60
2007,08,01,07,46,18.60
2007,08,01,07,47,18.60
2007,08,01,07,48,18.60
2007,08,01,07,49,18.70
2007,08,01,07,50,18.70
2007,08,01,07,51,18.70
2007,08,01,07,52,18.80
2007,08,01,07,53,18.80
2007,08,01,07,54,18.80
2007,08,01,07,55,18.80
2007,08,01,07,56,18.80
2007,08,01,07,57,18.80
2007,08,01,07,58,18.80
2007,08,01,07,59,18.90
2007,08,01,08,00,18.90
2007,08,01,08,01,18.90
2007,08,01,08,02,18.80
2007,08,01,08,03,18.80
2007,08,01,08,04,18.80
2007,08,01,08,05,18.90
2007,08,01,08,06,18.90
2007,08,01,08,07,18.90
2007,08,01,08,08,19.00
2007,08,01,08,09,19.00
2007,08,01,08,10,19.10
2007,08,01,08,11,19.10
2007,08,01,08,12,19.20
2007,08,01,08,13,19.20
2007,08,01,08,14,19.20
2007,08,01,08,15,19.30
2007,08,01,08,16,19.30
2007,08,01,08,17,19.30
2007,08,01,08,18,19.30
2007,08,01,08,19,19.40
2007,08,01,08,20,19.40
2007,08,01,08,21,19.30
2007,08,01,08,22,19.30
2007,08,01,08,23,19.30
2007,08,01,08,24,19.30
2007,08,01,08,25,19.30
2007,08,01,08,26,19.30
2007,08,01,08,27,19.30
2007,08,01,08,28,19.30
2007,08,01,08,29,19.30
2007,08,01,08,30,19.30
2007,08,01,08,31,19.30
2007,08,01,08,32,19.30
2007,08,01,08,33,19.30
2007,08,01,08,34,19.30
2007,08,01,08,35,19.30
2007,08,01,08,36,19.40
2007,08,01,08,37,19.40
2007,08,01,08,38,19.40
2007,08,01,08,39,19.50
2007,08,01,08,40,19.50
2007,08,01,08,41,19.60
2007,08,01,08,42,19.60
2007,08,01,08,43,19.60
2007,08,01,08,44,19.60
2007,08,01,08,45,19.60
2007,08,01,08,46,19.70
2007,08,01,08,47,19.70
2007,08,01,08,48,19.70
2007,08,01,08,49,19.70
2007,08,01,08,50,19.60
2007,08,01,08,51,19.50
2007,08,01,08,52,19.50
2007,08,01,08,53,19.40
2007,08,01,08,54,19.40
2007,08,01,08,55,19.40
2007,08,01,08,56,19.50
2007,08,01,08,57,19.50
2007,08,01,08,58,19.60
2007,08,01,08,59,19.60
2007,08,01,09,00,19.60
2007,08,01,09,01,19.70
2007,08,01,09,02,19.70
2007,08,01,09,03,19.70
2007,08,01,09,04,19.80
2007,08,01,09,05,19.80
2007,08,01,09,06,19.90
2007,08,01,09,07,20.00
2007,08,01,09,08,20.00
2007,08,01,09,09,20.10
2007,08,01,09,10,20.20
2007,08,01,09,11,20.20
2007,08,01,09,12,20.30
2007,08,01,09,13,20.30
2007,08,01,09,14,20.40
2007,08,01,09,15,20.40
2007,08,01,09,16,20.40
2007,08,01,09,17,20.40
2007,08,01,09,18,20.50
2007,08,01,09,19,20.50
2007,08,01,09,20,20.60
2007,08,01,09,21,20.60
2007,08,01,09,22,20.60
2007,08,01,09,23,20.70
2007,08,01,09,24,20.80
2007,08,01,09,25,20.80
2007,08,01,09,26,20.80
2007,08,01,09,27,20.70
2007,08,01,09,28,20.70
2007,08,01,09,29,20.70
2007,08,01,09,30,20.70
2007,08,01,09,31,20.70
2007,08,01,09,32,20.70
2007,08,01,09,33,20.60
2007,08,01,09,34,20.60
2007,08,01,09,35,20.60
2007,08,01,09,36,20.60
2007,08,01,09,37,20.60
2007,08,01,09,38,20.60
2007,08,01,09,39,20.60
2007,08,01,09,40,20.70
2007,08,01,09,41,20.70
2007,08,01,09,42,20.80
2007,08,01,09,43,20.80
2007,08,01,09,44,20.90
2007,08,01,09,45,20.90
2007,08,01,09,46,20.90
2007,08,01,09,47,20.90
2007,08,01,09,48,20.90
2007,08,01,09,49,20.90
2007,08,01,09,50,20.90
2007,08,01,09,51,21.00
2007,08,01,09,52,21.00
2007,08,01,09,53,21.00
2007,08,01,09,54,21.10
2007,08,01,09,55,21.10
2007,08,01,09,56,21.20
2007,08,01,09,57,21.20
2007,08,01,09,58,21.20
2007,08,01,09,59,21.20
2007,08,01,10,00,21.20
2007,08,01,10,01,21.20
2007,08,01,10,02,21.20
2007,08,01,10,03,21.20
2007,08,01,10,04,21.30
2007,08,01,10,05,21.30
2007,08,01,10,06,21.20
2007,08,01,10,07,21.10
2007,08,01,10,08,21.10
2007,08,01,10,09,21.10
2007,08,01,10,10,21.10
2007,08,01,10,11,21.10
2007,08,01,10,12,21.10
2007,08,01,10,13,21.20
2007,08,01,10,14,21.20
2007,08,01,10,15,21.20
2007,08,01,10,16,21.20
2007,08,01,10,17,21.20
2007,08,01,10,18,21.20
2007,08,01,10,19,21.10
2007,08,01,10,20,21.10
2007,08,01,10,21,21.10
2007,08,01,10,22,21.10
2007,08,01,10,23,21.10
2007,08,01,10,24,21.10
2007,08,01,10,25,21.10
2007,08,01,10,26,21.10
2007,08,01,10,27,21.10
2007,08,01,10,28,21.20
2007,08,01,10,29,21.20
2007,08,01,10,30,21.30
2007,08,01,10,31,21.40
2007,08,01,10,32,21.40
2007,08,01,10,33,21.50
2007,08,01,10,34,21.50
2007,08,01,10,35,21.60
2007,08,01,10,36,21.50
2007,08,01,10,37,21.60
2007,08,01,10,38,21.60
2007,08,01,10,39,21.60
2007,08,01,10,40,21.60
2007,08,01,10,41,21.60
2007,08,01,10,42,21.60
2007,08,01,10,43,21.60
2007,08,01,10,44,21.70
2007,08,01,10,45,21.70
2007,08,01,10,46,21.70
2007,08,01,10,47,21.80
2007,08,01,10,48,21.80
2007,08,01,10,49,21.80
2007,08,01,10,50,21.80
2007,08,01,10,51,21.70
2007,08,01,10,52,21.70
2007,08,01,10,53,21.60
2007,08,01,10,54,21.60
2007,08,01,10,55,21.60
2007,08,01,10,56,21.60
2007,08,01,10,57,21.60
2007,08,01,10,58,21.50
2007,08,01,10,59,21.50
2007,08,01,11,00,21.50
2007,08,01,11,01,21.60
2007,08,01,11,02,21.60
2007,08,01,11,03,21.70
2007,08,01,11,04,21.70
2007,08,01,11,05,21.70
2007,08,01,11,06,21.70
2007,08,01,11,07,21.70
2007,08,01,11,08,21.70
2007,08,01,11,09,21.80
2007,08,01,11,10,21.80
2007,08,01,11,11,21.90
2007,08,01,11,12,21.90
2007,08,01,11,13,22.00
2007,08,01,11,14,22.10
2007,08,01,11,15,22.10
2007,08,01,11,16,22.00
2007,08,01,11,17,22.00
2007,08,01,11,18,22.10
2007,08,01,11,19,22.10
2007,08,01,11,20,22.20
2007,08,01,11,21,22.30
2007,08,01,11,22,22.30
2007,08,01,11,23,22.40
2007,08,01,11,24,22.50
2007,08,01,11,25,22.60
2007,08,01,11,26,22.60
2007,08,01,11,27,22.60
2007,08,01,11,28,22.60
2007,08,01,11,29,22.50
2007,08,01,11,30,22.30
2007,08,01,11,31,22.30
2007,08,01,11,32,22.20
2007,08,01,11,33,22.20
2007,08,01,11,34,22.20
2007,08,01,11,35,22.20
2007,08,01,11,36,22.10
2007,08,01,11,37,22.00
2007,08,01,11,38,21.90
2007,08,01,11,39,21.90
2007,08,01,11,40,21.90
2007,08,01,11,41,22.00
2007,08,01,11,42,22.10
2007,08,01,11,43,22.10
2007,08,01,11,44,22.20
2007,08,01,11,45,22.30
2007,08,01,11,46,22.30
2007,08,01,11,47,22.30
2007,08,01,11,48,22.30
2007,08,01,11,49,22.30
2007,08,01,11,50,22.40
2007,08,01,11,51,22.40
2007,08,01,11,52,22.50
2007,08,01,11,53,22.60
2007,08,01,11,54,22.60
2007,08,01,11,55,22.60
2007,08,01,11,56,22.70
2007,08,01,11,57,22.70
2007,08,01,11,58,22.70
2007,08,01,11,59,22.60
2007,08,01,12,00,22.60
2007,08,01,12,01,22.60
2007,08,01,12,02,22.60
2007,08,01,12,03,22.60
2007,08,01,12,04,22.70
2007,08,01,12,05,22.70
2007,08,01,12,06,22.80
2007,08,01,12,07,22.80
2007,08,01,12,08,22.70
2007,08,01,12,09,22.70
2007,08,01,12,10,22.60
2007,08,01,12,11,22.60
2007,08,01,12,12,22.60
2007,08,01,12,13,22.60
2007,08,01,12,14,22.60
2007,08,01,12,15,22.70
2007,08,01,12,16,22.80
2007,08,01,12,17,22.80
2007,08,01,12,18,22.80
2007,08,01,12,19,22.70
2007,08,01,12,20,22.70
2007,08,01,12,21,22.80
2007,08,01,12,22,22.80
2007,08,01,12,23,22.80
2007,08,01,12,24,22.90
2007,08,01,12,25,22.90
2007,08,01,12,26,23.00
2007,08,01,12,27,23.10
2007,08,01,12,28,23.10
2007,08,01,12,29,23.00
2007,08,01,12,30,23.00
2007,08,01,12,31,22.90
2007,08,01,12,32,22.90
2007,08,01,12,33,22.80
2007,08,01,12,34,22.80
2007,08,01,12,35,22.80
2007,08,01,12,36,22.70
2007,08,01,12,37,22.60
2007,08,01,12,38,22.40
2007,08,01,12,39,22.30
2007,08,01,12,40,22.30
2007,08,01,12,41,22.20
2007,08,01,12,42,22.00
2007,08,01,12,43,22.00
2007,08,01,12,44,21.90
2007,08,01,12,45,21.80
2007,08,01,12,46,21.80
2007,08,01,12,47,21.70
2007,08,01,12,48,21.70
2007,08,01,12,49,21.70
2007,08,01,12,50,21.80
2007,08,01,12,51,21.80
2007,08,01,12,52,21.80
2007,08,01,12,53,21.80
2007,08,01,12,54,21.80
2007,08,01,12,55,21.80
2007,08,01,12,56,21.80
2007,08,01,12,57,21.80
2007,08,01,12,58,21.80
2007,08,01,12,59,21.90
2007,08,01,13,00,22.00
2007,08,01,13,01,22.10
2007,08,01,13,02,22.10
2007,08,01,13,03,22.10
2007,08,01,13,04,22.20
2007,08,01,13,05,22.20
2007,08,01,13,06,22.20
2007,08,01,13,07,22.30
2007,08,01,13,08,22.30
2007,08,01,13,09,22.30
2007,08,01,13,10,22.30
2007,08,01,13,11,22.40
2007,08,01,13,12,22.50
2007,08,01,13,13,22.50
2007,08,01,13,14,22.50
2007,08,01,13,15,22.60
2007,08,01,13,16,22.60
2007,08,01,13,17,22.70
2007,08,01,13,18,22.70
2007,08,01,13,19,22.70
2007,08,01,13,20,22.80
2007,08,01,13,21,22.90
2007,08,01,13,22,22.90
2007,08,01,13,23,22.90
2007,08,01,13,24,22.80
2007,08,01,13,25,22.80
2007,08,01,13,26,22.90
2007,08,01,13,27,22.90
2007,08,01,13,28,23.00
2007,08,01,13,29,23.10
2007,08,01,13,30,23.10
2007,08,01,13,31,23.10
2007,08,01,13,32,23.10
2007,08,01,13,33,23.10
2007,08,01,13,34,23.20
2007,08,01,13,35,23.30
2007,08,01,13,36,23.40
2007,08,01,13,37,23.50
2007,08,01,13,38,23.60
2007,08,01,13,39,23.70
2007,08,01,13,40,23.80
2007,08,01,13,41,23.80
2007,08,01,13,42,23.80
2007,08,01,13,43,23.90
2007,08,01,13,44,24.00
2007,08,01,13,45,24.20
2007,08,01,13,46,24.30
2007,08,01,13,47,24.40
2007,08,01,13,48,24.40
2007,08,01,13,49,24.50
2007,08,01,13,50,24.50
2007,08,01,13,51,24.50
2007,08,01,13,52,24.50
2007,08,01,13,53,24.50
2007,08,01,13,54,24.60
2007,08,01,13,55,24.60
2007,08,01,13,56,24.70
2007,08,01,13,57,24.70
2007,08,01,13,58,24.70
2007,08,01,13,59,24.80
2007,08,01,14,00,24.80
2007,08,01,14,01,24.80
2007,08,01,14,02,24.90
2007,08,01,14,03,24.90
2007,08,01,14,04,25.00
2007,08,01,14,05,25.00
2007,08,01,14,06,25.10
2007,08,01,14,07,25.10
2007,08,01,14,08,25.20
2007,08,01,14,09,25.20
2007,08,01,14,10,25.30
2007,08,01,14,11,25.30
2007,08,01,14,12,25.40
2007,08,01,14,13,25.40
2007,08,01,14,14,25.50
2007,08,01,14,15,25.60
2007,08,01,14,16,25.60
2007,08,01,14,17,25.60
2007,08,01,14,18,25.50
2007,08,01,14,19,25.50
2007,08,01,14,20,25.40
2007,08,01,14,21,25.40
2007,08,01,14,22,25.30
2007,08,01,14,23,25.20
2007,08,01,14,24,25.10
2007,08,01,14,25,25.00
2007,08,01,14,26,24.90
2007,08,01,14,27,24.80
2007,08,01,14,28,24.70
2007,08,01,14,29,24.70
2007,08,01,14,30,24.60
2007,08,01,14,31,24.60
2007,08,01,14,32,24.60
2007,08,01,14,33,24.60
2007,08,01,14,34,24.60
2007,08,01,14,35,24.60
2007,08,01,14,36,24.50
2007,08,01,14,37,24.50
2007,08,01,14,38,24.50
2007,08,01,14,39,24.40
2007,08,01,14,40,24.40
2007,08,01,14,41,24.30
2007,08,01,14,42,24.20
2007,08,01,14,43,24.20
2007,08,01,14,44,24.20
2007,08,01,14,45,24.20
2007,08,01,14,46,24.20
2007,08,01,14,47,24.20
2007,08,01,14,48,24.20
2007,08,01,14,49,24.20
2007,08,01,14,50,24.20
2007,08,01,14,51,24.30
2007,08,01,14,52,24.30
2007,08,01,14,53,24.30
2007,08,01,14,54,24.40
2007,08,01,14,55,24.40
2007,08,01,14,56,24.40
2007,08,01,14,57,24.50
2007,08,01,14,58,24.50
2007,08,01,14,59,24.50
2007,08,01,15,00,24.60
2007,08,01,15,01,24.60
2007,08,01,15,02,24.60
2007,08,01,15,03,24.60
2007,08,01,15,04,24.70
2007,08,01,15,05,24.80
2007,08,01,15,06,24.90
2007,08,01,15,07,25.00
2007,08,01,15,08,25.10
2007,08,01,15,09,25.10
2007,08,01,15,10,25.00
2007,08,01,15,11,25.00
2007,08,01,15,12,24.90
2007,08,01,15,13,24.90
2007,08,01,15,14,24.90
2007,08,01,15,15,24.80
2007,08,01,15,16,24.70
2007,08,01,15,17,24.60
2007,08,01,15,18,24.50
2007,08,01,15,19,24.50
2007,08,01,15,20,24.40
2007,08,01,15,21,24.40
2007,08,01,15,22,24.40
2007,08,01,15,23,24.50
2007,08,01,15,24,24.50
2007,08,01,15,25,24.60
2007,08,01,15,26,24.60
2007,08,01,15,27,24.70
2007,08,01,15,28,24.70
2007,08,01,15,29,24.70
2007,08,01,15,30,24.70
2007,08,01,15,31,24.70
2007,08,01,15,32,24.70
2007,08,01,15,33,24.60
2007,08,01,15,34,24.60
2007,08,01,15,35,24.60
2007,08,01,15,36,24.50
2007,08,01,15,37,24.40
2007,08,01,15,38,24.40
2007,08,01,15,39,24.30
2007,08,01,15,40,24.30
2007,08,01,15,41,24.30
2007,08,01,15,42,24.30
2007,08,01,15,43,24.30
2007,08,01,15,44,24.30
2007,08,01,15,45,24.30
2007,08,01,15,46,24.30
2007,08,01,15,47,24.40
2007,08,01,15,48,24.40
2007,08,01,15,49,24.40
2007,08,01,15,50,24.40
2007,08,01,15,51,24.40
2007,08,01,15,52,24.50
2007,08,01,15,53,24.50
2007,08,01,15,54,24.50
2007,08,01,15,55,24.60
2007,08,01,15,56,24.60
2007,08,01,15,57,24.60
2007,08,01,15,58,24.50
2007,08,01,15,59,24.40
2007,08,01,16,00,24.40
2007,08,01,16,01,24.40
2007,08,01,16,02,24.40
2007,08,01,16,03,24.40
2007,08,01,16,04,24.50
2007,08,01,16,05,24.50
2007,08,01,16,06,24.60
2007,08,01,16,07,24.70
2007,08,01,16,08,24.90
2007,08,01,16,09,25.00
2007,08,01,16,10,25.00
2007,08,01,16,11,25.20
2007,08,01,16,12,25.30
2007,08,01,16,13,25.30
2007,08,01,16,14,25.30
2007,08,01,16,15,25.20
2007,08,01,16,16,25.20
2007,08,01,16,17,25.20
2007,08,01,16,18,25.20
2007,08,01,16,19,25.30
2007,08,01,16,20,25.30
2007,08,01,16,21,25.30
2007,08,01,16,22,25.30
2007,08,01,16,23,25.30
2007,08,01,16,24,25.30
2007,08,01,16,25,25.30
2007,08,01,16,26,25.20
2007,08,01,16,27,25.20
2007,08,01,16,28,25.20
2007,08,01,16,29,25.20
2007,08,01,16,30,25.20
2007,08,01,16,31,25.20
2007,08,01,16,32,25.20
2007,08,01,16,33,25.20
2007,08,01,16,34,25.20
2007,08,01,16,35,25.10
2007,08,01,16,36,25.00
2007,08,01,16,37,25.00
2007,08,01,16,38,25.00
2007,08,01,16,39,24.90
2007,08,01,16,40,24.90
2007,08,01,16,41,24.90
2007,08,01,16,42,24.90
2007,08,01,16,43,24.90
2007,08,01,16,44,24.90
2007,08,01,16,45,25.00
2007,08,01,16,46,24.90
2007,08,01,16,47,24.80
2007,08,01,16,48,24.80
2007,08,01,16,49,24.70
2007,08,01,16,50,24.70
2007,08,01,16,51,24.60
2007,08,01,16,52,24.60
2007,08,01,16,53,24.60
2007,08,01,16,54,24.70
2007,08,01,16,55,24.80
2007,08,01,16,56,24.90
2007,08,01,16,57,24.90
2007,08,01,16,58,24.90
2007,08,01,16,59,24.90
2007,08,01,17,00,24.90
2007,08,01,17,01,24.90
2007,08,01,17,02,25.00
2007,08,01,17,03,25.00
2007,08,01,17,04,25.00
2007,08,01,17,05,25.00
2007,08,01,17,06,25.10
2007,08,01,17,07,25.10
2007,08,01,17,08,25.00
2007,08,01,17,09,25.00
2007,08,01,17,10,25.00
2007,08,01,17,11,24.90
2007,08,01,17,12,24.80
2007,08,01,17,13,24.60
2007,08,01,17,14,24.50
2007,08,01,17,15,24.50
2007,08,01,17,16,24.40
2007,08,01,17,17,24.30
2007,08,01,17,18,24.20
2007,08,01,17,19,24.10